Bogalusa, LA

2:56 PM CDT on September 24, 2017 (GMT -0500)
Carr Memorial

Weather History for KBXA - January, 2014

Change the Weather History Date:

Saturday, January 11, 2014

  Actual Average Record
Temperature  
Mean Temperature 55 °F -  
Max Temperature 72 °F 57 °F 76 °F (2017)
Min Temperature 38 °F 35 °F 29 °F (2016)
Degree Days  
Heating Degree Days 10    
Growing Degree Days 5 (Base 50)    
Moisture  
Dew Point 49 °F    
Average Humidity 66    
Maximum Humidity 91    
Minimum Humidity 20    
Precipitation  
Precipitation 0.38 in - - ()
Sea Level Pressure  
Sea Level Pressure 29.96 in    
Wind  
Wind Speed 10 mph (West)    
Max Wind Speed 18 mph    
Max Gust Speed 26 mph    
Visibility 10 miles    
Events Rain , Thunderstorm    
Averages and records for this station are not official NWS values.
T = Trace of Precipitation, MM = Missing Value Source: NWS Daily Summary

Daily Weather History Graph

Daily Weather History Graph

Search for Another Location

Airport or City:

Trip Planner

Search our weather history database for the weather conditions in past years. The results will help you decide how hot, cold, wet, or windy it might be!

Date:

Astronomy

Jan. 11, 2014 Rise Set
Actual Time 6:58 AM CST 5:16 PM CST
Civil Twilight 6:31 AM CST 5:43 PM CST
Nautical Twilight 6:02 AM CST 6:12 PM CST
Astronomical Twilight 5:33 AM CST 6:42 PM CST
Moon 1:58 PM CST (1/11) 3:06 AM CST (1/11)
Length of Visible Light 11h 11m
Length of Day
10h 18m
Waxing Gibbous, 83% of the Moon is Illuminated
Jan 11
Waxing Gibbous
Jan 15
Full
Jan 23
Last Quarter
Jan 30
New
Feb 6
First Quarter

Hourly Weather History & Observations

Time (CST) Temp. Dew Point Humidity Pressure Visibility Wind Dir Wind Speed Gust Speed Precip Events Conditions
12:15 AM 66.4 °F 63.7 °F 91% 29.88 in 3.0 mi South 8.1 mph - N/A Thunderstorm Overcast
12:35 AM 68.4 °F 65.7 °F 91% 29.88 in 10.0 mi SSW 13.8 mph - N/A Thunderstorm Overcast
12:55 AM 69.4 °F 66.6 °F 91% 29.87 in 10.0 mi SSW 15.0 mph 24.2 mph N/A   Overcast
1:15 AM 70.0 °F 66.4 °F 88% 29.87 in 10.0 mi SSW 18.4 mph 26.5 mph N/A Thunderstorm Overcast
1:35 AM 69.8 °F 66.2 °F 88% 29.85 in 7.0 mi SSW 16.1 mph 26.5 mph N/A   Overcast
1:55 AM 69.8 °F 66.2 °F 88% 29.85 in 10.0 mi SSW 15.0 mph 20.7 mph N/A   Overcast
2:15 AM 70.0 °F 66.2 °F 88% 29.85 in 10.0 mi SSW 15.0 mph 23.0 mph N/A Thunderstorm Overcast
2:35 AM 70.2 °F 66.2 °F 87% 29.84 in 10.0 mi SSW 12.7 mph 23.0 mph N/A Thunderstorm Thunderstorm
2:55 AM 69.8 °F 66.2 °F 88% 29.85 in 7.0 mi SSW 13.8 mph 24.2 mph 0.02 in Rain , Thunderstorm Light Thunderstorms and Rain
3:15 AM 69.8 °F 66.2 °F 88% 29.85 in 10.0 mi SW 12.7 mph 18.4 mph N/A Thunderstorm Thunderstorm
3:35 AM 69.8 °F 66.2 °F 88% 29.84 in 7.0 mi SW 11.5 mph 23.0 mph 0.02 in Rain , Thunderstorm Thunderstorms and Rain
3:55 AM 69.8 °F 66.0 °F 88% 29.83 in 7.0 mi SW 12.7 mph 19.6 mph 0.05 in Rain , Thunderstorm Light Thunderstorms and Rain
4:15 AM 69.6 °F 65.8 °F 88% 29.82 in 10.0 mi SW 11.5 mph 19.6 mph N/A Rain , Thunderstorm Thunderstorms and Rain
4:35 AM 69.3 °F 65.7 °F 88% 29.83 in 2.5 mi West 8.1 mph 16.1 mph 0.25 in Rain , Thunderstorm Heavy Thunderstorms and Rain
4:55 AM 69.1 °F 65.5 °F 88% 29.84 in 10.0 mi West 5.8 mph - 0.27 in Rain , Thunderstorm Thunderstorms and Rain
5:15 AM 68.9 °F 65.5 °F 89% 29.85 in 7.0 mi West 10.4 mph - 0.03 in Rain , Thunderstorm Light Thunderstorms and Rain
5:35 AM 68.9 °F 64.9 °F 87% 29.86 in 10.0 mi WSW 6.9 mph - 0.04 in Thunderstorm Unknown
5:55 AM 68.7 °F 64.8 °F 87% 29.85 in 10.0 mi West 5.8 mph - 0.04 in   Unknown
6:15 AM 68.4 °F 64.6 °F 88% 29.85 in 10.0 mi West 4.6 mph - N/A   Unknown
6:35 AM 68.2 °F 64.4 °F 88% 29.87 in 10.0 mi West 5.8 mph - N/A   Unknown
6:55 AM 67.8 °F 63.7 °F 87% 29.88 in 10.0 mi West 3.5 mph - N/A   Unknown
7:15 AM 67.1 °F 63.5 °F 88% 29.90 in 10.0 mi WSW 3.5 mph - N/A   Unknown
7:35 AM 66.7 °F 62.6 °F 86% 29.91 in 10.0 mi WNW 3.5 mph - N/A   Unknown
7:55 AM 66.2 °F 62.6 °F 88% 29.92 in 10.0 mi Calm Calm - N/A   Unknown
8:15 AM 67.1 °F 63.1 °F 87% 29.92 in 10.0 mi West 5.8 mph - N/A   Unknown
8:35 AM 68.7 °F 63.5 °F 83% 29.93 in 10.0 mi West 5.8 mph - N/A   Unknown
8:55 AM 68.0 °F 63.0 °F 84% 29.94 in 10.0 mi West 5.8 mph - N/A   Unknown
9:15 AM 69.6 °F 63.5 °F 81% 29.95 in 10.0 mi West 9.2 mph - N/A   Unknown
9:35 AM 70.0 °F 62.1 °F 76% 29.95 in 10.0 mi WNW 5.8 mph 16.1 mph N/A   Unknown
9:55 AM 69.8 °F 60.6 °F 73% 29.96 in 10.0 mi WNW 12.7 mph 16.1 mph N/A   Unknown
10:15 AM 70.2 °F 60.8 °F 72% 29.96 in 10.0 mi NW 8.1 mph - N/A   Unknown
10:35 AM 70.9 °F 59.9 °F 68% 29.96 in 10.0 mi NW 11.5 mph 18.4 mph N/A   Unknown
10:55 AM 69.8 °F 59.5 °F 70% 29.96 in 10.0 mi WNW 8.1 mph - N/A   Unknown
11:15 AM 71.2 °F 58.3 °F 64% 29.95 in 10.0 mi WNW 13.8 mph 17.3 mph N/A   Unknown
11:35 AM 72.0 °F 57.4 °F 60% 29.94 in 10.0 mi WNW 9.2 mph - N/A   Unknown
11:55 AM 70.9 °F 51.6 °F 50% 29.95 in 10.0 mi NW 10.4 mph 20.7 mph N/A   Unknown
12:15 PM 72.7 °F 51.3 °F 47% 29.93 in 10.0 mi NW 13.8 mph 19.6 mph N/A   Unknown
12:35 PM 72.9 °F 41.7 °F 33% 29.93 in 10.0 mi NNW 15.0 mph 19.6 mph N/A   Unknown
12:55 PM 72.7 °F 39.9 °F 31% 29.93 in 10.0 mi NW 16.1 mph 23.0 mph N/A   Unknown
1:15 PM 72.5 °F 36.7 °F 27% 29.93 in 10.0 mi WNW 16.1 mph 21.9 mph N/A   Unknown
1:35 PM 72.1 °F 33.6 °F 24% 29.93 in 10.0 mi NW 13.8 mph 26.5 mph N/A   Unknown
1:55 PM 71.6 °F 31.6 °F 23% 29.94 in 10.0 mi NW 15.0 mph 25.3 mph N/A   Unknown
2:15 PM 72.1 °F 32.2 °F 23% 29.94 in 10.0 mi WNW 15.0 mph 19.6 mph N/A   Unknown
2:35 PM 72.0 °F 30.6 °F 22% 29.94 in 10.0 mi NW 17.3 mph 25.3 mph N/A   Unknown
2:55 PM 71.1 °F 28.8 °F 21% 29.94 in 10.0 mi NNW 11.5 mph 21.9 mph N/A   Unknown
3:15 PM 71.1 °F 27.7 °F 20% 29.94 in 10.0 mi WNW 18.4 mph 24.2 mph N/A   Unknown
3:35 PM 70.7 °F 29.8 °F 22% 29.95 in 10.0 mi NNW 16.1 mph 20.7 mph N/A   Unknown
3:55 PM 70.0 °F 26.6 °F 20% 29.96 in 10.0 mi NW 17.3 mph 24.2 mph N/A   Unknown
4:15 PM 68.9 °F 26.4 °F 20% 29.97 in 10.0 mi NW 15.0 mph 23.0 mph N/A   Unknown
4:35 PM 67.6 °F 27.0 °F 22% 29.97 in 10.0 mi NW 15.0 mph 19.6 mph N/A   Unknown
4:55 PM 66.2 °F 25.3 °F 21% 29.98 in 10.0 mi NW 13.8 mph - N/A   Unknown
5:15 PM 64.8 °F 25.3 °F 22% 29.99 in 10.0 mi NW 11.5 mph 21.9 mph N/A   Unknown
5:35 PM 62.4 °F 27.0 °F 26% 30.01 in 10.0 mi NW 9.2 mph - N/A   Unknown
5:55 PM 59.0 °F 29.8 °F 33% 30.02 in 10.0 mi NW 4.6 mph - N/A   Unknown
6:15 PM 58.5 °F 30.4 °F 34% 30.03 in 10.0 mi NW 8.1 mph - N/A   Unknown
6:35 PM 58.1 °F 30.0 °F 34% 30.04 in 10.0 mi NW 5.8 mph - N/A   Unknown
6:55 PM 57.4 °F 31.1 °F 37% 30.05 in 10.0 mi NW 4.6 mph - N/A   Unknown
7:15 PM 54.3 °F 32.2 °F 43% 30.06 in 10.0 mi WNW 4.6 mph - N/A   Unknown
7:35 PM 48.4 °F 37.6 °F 66% 30.07 in 10.0 mi Calm Calm - N/A   Unknown
7:55 PM 47.7 °F 38.7 °F 71% 30.08 in 10.0 mi WNW 3.5 mph - N/A   Unknown
8:15 PM 45.5 °F 38.8 °F 78% 30.08 in 10.0 mi Calm Calm - N/A   Unknown
8:35 PM 44.6 °F 38.1 °F 78% 30.09 in 10.0 mi Calm Calm - N/A   Clear
8:55 PM 43.5 °F 37.9 °F 81% 30.10 in 10.0 mi Calm Calm - N/A   Clear
9:15 PM 43.2 °F 38.3 °F 83% 30.11 in 10.0 mi Calm Calm - N/A   Unknown
9:35 PM 41.5 °F 37.4 °F 85% 30.12 in 10.0 mi Calm Calm - N/A   Unknown
9:55 PM 41.9 °F 37.4 °F 84% 30.12 in 10.0 mi Calm Calm - N/A   Unknown
10:15 PM 40.8 °F 36.7 °F 85% 30.13 in 10.0 mi Calm Calm - N/A   Unknown
10:35 PM 41.4 °F 37.2 °F 85% 30.13 in 10.0 mi Calm Calm - N/A   Unknown
10:55 PM 41.2 °F 37.2 °F 86% 30.12 in 10.0 mi Calm Calm - N/A   Unknown
11:15 PM 40.1 °F 36.3 °F 86% 30.12 in 10.0 mi Calm Calm - N/A   Unknown
11:35 PM 38.5 °F 35.2 °F 88% 30.12 in 10.0 mi Calm Calm - N/A   Unknown
11:55 PM 39.2 °F 35.8 °F 88% 30.13 in 10.0 mi Calm Calm - N/A   Unknown